• In Hungary
  • List of Countries
  • For 7 days
  • Water Temperature
  • Satellite Maps
  • Weather Map
  • News
  • Weather Widgets
  • user-avatar
    Login

    Hourly Weather Ibarra

    Today, 20 May, Sunday

    Time Temperature Precipitation Wind Pressure Humidity
    00:00 +14°C° 0.5 mm 1 mps 570 mmHg 87%
    01:00 +13°C° 0 mm 1 mps 570 mmHg 85%
    02:00 +13°C° 0.7 mm 1 mps 569 mmHg 84%
    03:00 +13°C° 0.7 mm 1 mps 569 mmHg 84%
    04:00 +13°C° 0.7 mm 2 mps 569 mmHg 84%
    05:00 +14°C° 0.8 mm 2 mps 570 mmHg 83%
    06:00 +14°C° 0.8 mm 2 mps 570 mmHg 83%
    07:00 +14°C° 0.8 mm 2 mps 570 mmHg 82%
    08:00 +15°C° 0.6 mm 2 mps 571 mmHg 78%
    09:00 +16°C° 0.6 mm 2 mps 572 mmHg 75%
    10:00 +18°C° 0.6 mm 2 mps 572 mmHg 71%
    11:00 +18°C° 0.8 mm 2 mps 572 mmHg 71%
    12:00 +18°C° 0.8 mm 2 mps 572 mmHg 71%
    13:00 +18°C° 0.8 mm 2 mps 571 mmHg 71%
    14:00 +18°C° 0.9 mm 2 mps 571 mmHg 72%
    15:00 +18°C° 0.9 mm 2 mps 570 mmHg 74%
    16:00 +17°C° 0.9 mm 2 mps 570 mmHg 75%
    17:00 +16°C° 1.2 mm 1 mps 569 mmHg 80%
    18:00 +15°C° 1.2 mm 1 mps 569 mmHg 84%
    19:00 +14°C° 1.2 mm 1 mps 569 mmHg 89%
    20:00 +14°C° 0.7 mm 1 mps 569 mmHg 88%
    21:00 +13°C° 0.7 mm 1 mps 569 mmHg 87%
    22:00 +13°C° 0.7 mm 1 mps 570 mmHg 86%
    23:00 +13°C° 0.6 mm 1 mps 570 mmHg 86%

    Tomorrow, 21 May, Monday

    Time Temperature Precipitation Wind Pressure Humidity
    00:00 +13°C° 0.6 mm 1 mps 570 mmHg 86%
    01:00 +13°C° 0.6 mm 1 mps 569 mmHg 86%
    02:00 +13°C° 0.7 mm 1 mps 569 mmHg 86%
    03:00 +13°C° 0.7 mm 1 mps 569 mmHg 87%
    04:00 +13°C° 0.7 mm 1 mps 568 mmHg 88%
    05:00 +13°C° 0.5 mm 1 mps 569 mmHg 86%
    06:00 +14°C° 0.5 mm 1 mps 569 mmHg 85%
    07:00 +14°C° 0.5 mm 1 mps 570 mmHg 84%
    08:00 +15°C° 0.6 mm 1 mps 570 mmHg 79%
    09:00 +16°C° 0.6 mm 1 mps 571 mmHg 75%
    10:00 +18°C° 0.6 mm 2 mps 572 mmHg 71%
    11:00 +18°C° 0.8 mm 2 mps 572 mmHg 72%
    12:00 +18°C° 0.8 mm 2 mps 571 mmHg 72%
    13:00 +18°C° 0.8 mm 2 mps 571 mmHg 72%
    14:00 +19°C° 1.2 mm 1 mps 570 mmHg 74%
    15:00 +18°C° 1.2 mm 1 mps 570 mmHg 76%
    16:00 +18°C° 1.2 mm 1 mps 569 mmHg 78%
    17:00 +16°C° 0.5 mm 1 mps 569 mmHg 83%
    18:00 +15°C° 0.5 mm 1 mps 569 mmHg 88%
    19:00 +13°C° 0.5 mm 0 mps 568 mmHg 93%
    20:00 +13°C° 0.3 mm 0 mps 569 mmHg 92%
    21:00 +13°C° 0.3 mm 0 mps 569 mmHg 92%
    22:00 +12°C° 0.3 mm 0 mps 570 mmHg 92%
    23:00 +12°C° 0.7 mm 0 mps 569 mmHg 91%

    Day after tomorrow, 22 May, Tuesday

    Time Temperature Precipitation Wind Pressure Humidity
    00:00 +12°C° 0.7 mm 0 mps 569 mmHg 91%
    01:00 +12°C° 0.7 mm 0 mps 569 mmHg 90%
    02:00 +12°C° 1.2 mm 0 mps 569 mmHg 90%
    03:00 +13°C° 1.2 mm 1 mps 568 mmHg 90%
    04:00 +13°C° 1.2 mm 1 mps 568 mmHg 90%
    05:00 +13°C° 1.3 mm 1 mps 569 mmHg 88%
    06:00 +13°C° 1.3 mm 1 mps 569 mmHg 87%
    07:00 +14°C° 1.3 mm 1 mps 569 mmHg 85%
    08:00 +15°C° 1.2 mm 1 mps 570 mmHg 82%
    09:00 +15°C° 1.2 mm 1 mps 571 mmHg 79%
    10:00 +16°C° 1.2 mm 1 mps 572 mmHg 76%
    11:00 +16°C° 1.3 mm 1 mps 571 mmHg 77%
    12:00 +18°C° 1.3 mm 1 mps 571 mmHg 77%
    13:00 +18°C° 1.3 mm 1 mps 570 mmHg 77%
    14:00 +18°C° 1.6 mm 1 mps 570 mmHg 78%
    15:00 +18°C° 1.6 mm 1 mps 569 mmHg 78%
    16:00 +18°C° 1.6 mm 1 mps 569 mmHg 79%
    17:00 +16°C° 1.9 mm 1 mps 569 mmHg 83%
    18:00 +15°C° 1.9 mm 1 mps 569 mmHg 86%
    19:00 +14°C° 1.9 mm 1 mps 569 mmHg 90%
    20:00 +14°C° 1.3 mm 1 mps 569 mmHg 89%
    21:00 +14°C° 1.3 mm 1 mps 570 mmHg 88%
    22:00 +14°C° 1.3 mm 1 mps 570 mmHg 87%
    23:00 +13°C° 1 mm 1 mps 570 mmHg 87%

    23 May, Wednesday

    Time Temperature Precipitation Wind Pressure Humidity
    00:00 +13°C° 1 mm 1 mps 570 mmHg 87%
    01:00 +13°C° 1 mm 1 mps 570 mmHg 87%
    02:00 +13°C° 2.6 mm 1 mps 569 mmHg 88%
    03:00 +13°C° 2.6 mm 1 mps 569 mmHg 88%
    04:00 +12°C° 2.6 mm 0 mps 569 mmHg 89%
    05:00 +13°C° 2.4 mm 1 mps 569 mmHg 88%
    06:00 +13°C° 2.4 mm 1 mps 569 mmHg 88%
    07:00 +13°C° 2.4 mm 1 mps 570 mmHg 88%
    08:00 +14°C° 1.8 mm 1 mps 570 mmHg 85%
    09:00 +15°C° 1.8 mm 1 mps 571 mmHg 82%
    10:00 +16°C° 1.8 mm 1 mps 572 mmHg 79%
    11:00 +16°C° 1.6 mm 1 mps 572 mmHg 80%
    12:00 +16°C° 1.6 mm 1 mps 571 mmHg 81%
    13:00 +16°C° 1.6 mm 1 mps 571 mmHg 81%
    14:00 +15°C° 2.1 mm 1 mps 570 mmHg 82%
    15:00 +15°C° 2.1 mm 1 mps 570 mmHg 84%
    16:00 +15°C° 2.1 mm 1 mps 569 mmHg 85%
    17:00 +15°C° 2.1 mm 1 mps 570 mmHg 86%
    18:00 +14°C° 2.1 mm 1 mps 570 mmHg 88%
    19:00 +14°C° 2.1 mm 1 mps 570 mmHg 90%
    20:00 +14°C° 1.9 mm 1 mps 570 mmHg 89%
    21:00 +14°C° 1.9 mm 1 mps 571 mmHg 88%
    22:00 +14°C° 1.9 mm 1 mps 571 mmHg 87%
    23:00 +14°C° 2.1 mm 1 mps 571 mmHg 87%

    24 May, Thursday

    Time Temperature Precipitation Wind Pressure Humidity
    00:00 +14°C° 2.1 mm 1 mps 570 mmHg 87%
    01:00 +13°C° 2.1 mm 1 mps 570 mmHg 88%
    02:00 +13°C° 1.5 mm 1 mps 570 mmHg 88%
    03:00 +13°C° 1.5 mm 1 mps 569 mmHg 88%
    04:00 +13°C° 1.5 mm 1 mps 569 mmHg 88%
    05:00 +13°C° 1.2 mm 1 mps 570 mmHg 87%
    06:00 +13°C° 1.2 mm 1 mps 570 mmHg 87%
    07:00 +14°C° 1.2 mm 1 mps 571 mmHg 86%
    08:00 +14°C° 1.3 mm 1 mps 571 mmHg 84%
    09:00 +15°C° 1.3 mm 1 mps 572 mmHg 82%
    10:00 +16°C° 1.3 mm 1 mps 572 mmHg 80%
    11:00 +16°C° 1.6 mm 2 mps 572 mmHg 80%
    12:00 +16°C° 1.6 mm 2 mps 571 mmHg 79%
    13:00 +16°C° 1.6 mm 2 mps 571 mmHg 79%
    14:00 +16°C° 1.8 mm 1 mps 571 mmHg 80%
    15:00 +16°C° 1.8 mm 1 mps 570 mmHg 81%
    16:00 +16°C° 1.8 mm 1 mps 570 mmHg 82%
    17:00 +15°C° 1.5 mm 1 mps 570 mmHg 85%
    18:00 +15°C° 1.5 mm 1 mps 570 mmHg 87%
    19:00 +14°C° 1.5 mm 1 mps 570 mmHg 89%
    20:00 +14°C° 1.4 mm 1 mps 570 mmHg 89%
    21:00 +14°C° 1.4 mm 1 mps 571 mmHg 89%
    22:00 +14°C° 1.4 mm 1 mps 571 mmHg 89%
    23:00 +13°C° 1.1 mm 1 mps 571 mmHg 89%

    25 May, Friday

    Time Temperature Precipitation Wind Pressure Humidity
    00:00 +13°C° 1.1 mm 1 mps 570 mmHg 90%
    01:00 +13°C° 1.1 mm 1 mps 570 mmHg 90%
    02:00 +13°C° 1 mm 1 mps 569 mmHg 90%
    03:00 +13°C° 1 mm 1 mps 569 mmHg 91%
    04:00 +12°C° 1 mm 1 mps 569 mmHg 91%
    05:00 +13°C° 0.7 mm 1 mps 569 mmHg 89%
    06:00 +13°C° 0.7 mm 1 mps 570 mmHg 86%
    07:00 +14°C° 0.7 mm 1 mps 570 mmHg 84%
    08:00 +15°C° 0.7 mm 1 mps 571 mmHg 80%
    09:00 +16°C° 0.7 mm 1 mps 572 mmHg 76%
    10:00 +17°C° 0.7 mm 2 mps 572 mmHg 72%
    11:00 +18°C° 1.2 mm 1 mps 572 mmHg 74%
    12:00 +18°C° 1.2 mm 1 mps 571 mmHg 75%
    13:00 +18°C° 1.2 mm 1 mps 571 mmHg 76%
    14:00 +18°C° 1.4 mm 1 mps 570 mmHg 78%
    15:00 +16°C° 1.4 mm 1 mps 570 mmHg 80%
    16:00 +16°C° 1.4 mm 1 mps 569 mmHg 82%
    17:00 +15°C° 1 mm 1 mps 569 mmHg 85%
    18:00 +14°C° 1 mm 1 mps 569 mmHg 88%
    19:00 +13°C° 1 mm 1 mps 569 mmHg 92%
    20:00 +13°C° 0.5 mm 1 mps 569 mmHg 90%
    21:00 +13°C° 0.5 mm 1 mps 570 mmHg 89%
    22:00 +13°C° 0.5 mm 1 mps 570 mmHg 88%
    23:00 +13°C° 0.7 mm 1 mps 570 mmHg 88%
    Show more